Time,TemperatureF,DewpointF,PressureIn,WindDirection,WindDirectionDegrees,WindSpeedMPH,WindSpeedGustMPH,Humidity,HourlyPrecipIn,Conditions,Clouds,dailyrainin,SoftwareType,DateUTC
2013-07-06 00:02:00,75.0,60.0,-100.00,SE,135,10.0,14.0,58,0.00,,,-99.99,,2013-07-06 05:02:00,
2013-07-06 00:12:00,75.0,60.0,-100.00,SE,145,7.0,14.0,59,0.00,,,-99.99,,2013-07-06 05:12:00,
2013-07-06 00:22:00,75.0,60.0,-100.00,SSE,150,9.0,12.0,59,0.00,,,-99.99,,2013-07-06 05:22:00,
2013-07-06 00:33:00,75.0,60.0,-100.00,SE,145,8.0,12.0,59,0.00,,,-99.99,,2013-07-06 05:33:00,
2013-07-06 00:42:00,75.0,60.0,-100.00,SE,145,10.0,14.0,59,0.00,,,-99.99,,2013-07-06 05:42:00,
2013-07-06 00:53:00,75.0,60.0,-100.00,SE,145,9.0,12.0,60,0.00,,,-99.99,,2013-07-06 05:53:00,
2013-07-06 01:02:00,74.0,60.0,-100.00,SE,140,8.0,12.0,61,0.00,,,-99.99,,2013-07-06 06:02:00,
2013-07-06 01:12:00,74.0,60.0,-100.00,SE,140,8.0,12.0,61,0.00,,,-99.99,,2013-07-06 06:12:00,
2013-07-06 01:22:00,74.0,60.0,-100.00,SSE,150,9.0,12.0,62,0.00,,,-99.99,,2013-07-06 06:22:00,
2013-07-06 01:34:00,74.0,60.0,-100.00,SE,140,9.0,12.0,61,0.00,,,-99.99,,2013-07-06 06:34:00,
2013-07-06 01:43:00,74.0,60.0,-100.00,SSE,150,7.0,12.0,62,0.00,,,-99.99,,2013-07-06 06:43:00,
2013-07-06 02:02:00,73.0,60.0,-100.00,SE,135,6.0,12.0,63,0.00,,,-99.99,,2013-07-06 07:02:00,
2013-07-06 02:12:00,72.0,60.0,-100.00,SE,130,6.0,9.0,66,0.00,,,-99.99,,2013-07-06 07:12:00,
2013-07-06 02:22:00,72.0,60.0,-100.00,SE,130,6.0,8.0,66,0.00,,,-99.99,,2013-07-06 07:22:00,
2013-07-06 02:33:00,72.0,61.0,-100.00,SE,135,5.0,8.0,67,0.00,,,-99.99,,2013-07-06 07:33:00,
2013-07-06 02:44:00,72.0,61.0,-100.00,SE,135,5.0,9.0,68,0.00,,,-99.99,,2013-07-06 07:44:00,
2013-07-06 02:52:00,72.0,61.0,-100.00,SE,135,5.0,9.0,68,0.00,,,-99.99,,2013-07-06 07:52:00,
2013-07-06 03:02:00,71.0,61.0,-100.00,SE,140,7.0,10.0,69,0.00,,,-99.99,,2013-07-06 08:02:00,
2013-07-06 03:12:00,71.0,61.0,-100.00,SE,135,7.0,11.0,71,0.00,,,-99.99,,2013-07-06 08:12:00,
2013-07-06 03:21:00,71.0,61.0,-100.00,SE,145,7.0,12.0,71,0.00,,,-99.99,,2013-07-06 08:21:00,
2013-07-06 03:34:00,70.0,61.0,-100.00,SE,135,7.0,10.0,72,0.00,,,-99.99,,2013-07-06 08:34:00,
2013-07-06 03:43:00,70.0,61.0,-100.00,SE,140,7.0,12.0,72,0.00,,,-99.99,,2013-07-06 08:43:00,
2013-07-06 03:54:00,71.0,62.0,-100.00,SE,130,7.0,13.0,72,0.00,,,-99.99,,2013-07-06 08:54:00,
2013-07-06 04:02:00,71.0,61.0,-100.00,SE,135,7.0,11.0,72,0.00,,,-99.99,,2013-07-06 09:02:00,
2013-07-06 04:11:00,71.0,61.0,-100.00,SE,140,6.0,12.0,72,0.00,,,-99.99,,2013-07-06 09:11:00,
2013-07-06 04:22:00,70.0,61.0,-100.00,SE,130,6.0,9.0,72,0.00,,,-99.99,,2013-07-06 09:22:00,
2013-07-06 04:33:00,70.0,61.0,-100.00,SE,130,6.0,9.0,72,0.00,,,-99.99,,2013-07-06 09:33:00,
2013-07-06 04:43:00,70.0,61.0,-100.00,SE,145,6.0,9.0,74,0.00,,,-99.99,,2013-07-06 09:43:00,
2013-07-06 04:52:00,70.0,61.0,-100.00,SE,130,7.0,9.0,74,0.00,,,-99.99,,2013-07-06 09:52:00,
2013-07-06 05:02:00,70.0,61.0,-100.00,SE,130,7.0,9.0,74,0.00,,,-99.99,,2013-07-06 10:02:00,
2013-07-06 05:11:00,69.0,61.0,-100.00,SE,135,6.0,11.0,75,0.00,,,-99.99,,2013-07-06 10:11:00,
2013-07-06 05:22:00,69.0,61.0,-100.00,SSE,155,5.0,9.0,76,0.00,,,-99.99,,2013-07-06 10:22:00,
2013-07-06 05:33:00,69.0,61.0,-100.00,SE,135,7.0,12.0,75,0.00,,,-99.99,,2013-07-06 10:33:00,
2013-07-06 05:42:00,69.0,61.0,-100.00,SE,135,6.0,12.0,74,0.00,,,-99.99,,2013-07-06 10:42:00,
2013-07-06 05:53:00,69.0,61.0,-100.00,SE,135,7.0,9.0,74,0.00,,,-99.99,,2013-07-06 10:53:00,
2013-07-06 06:01:00,69.0,61.0,-100.00,SE,135,7.0,9.0,74,0.00,,,-99.99,,2013-07-06 11:01:00,
2013-07-06 06:11:00,68.0,60.0,-100.00,SE,130,7.0,9.0,75,0.00,,,-99.99,,2013-07-06 11:11:00,
2013-07-06 06:22:00,68.0,60.0,-100.00,SE,140,6.0,9.0,76,0.00,,,-99.99,,2013-07-06 11:22:00,
2013-07-06 06:33:00,68.0,60.0,-100.00,SE,135,7.0,9.0,76,0.00,,,-99.99,,2013-07-06 11:33:00,
2013-07-06 06:43:00,68.0,60.0,-100.00,SE,135,6.0,9.0,76,0.00,,,-99.99,,2013-07-06 11:43:00,
2013-07-06 06:53:00,69.0,61.0,-100.00,SE,145,5.0,9.0,76,0.00,,,-99.99,,2013-07-06 11:53:00,
2013-07-06 07:01:00,69.0,61.0,-100.00,SSE,150,6.0,9.0,76,0.00,,,-99.99,,2013-07-06 12:01:00,
2013-07-06 07:11:00,69.0,61.0,-100.00,SE,135,6.0,10.0,75,0.00,,,-99.99,,2013-07-06 12:11:00,
2013-07-06 07:22:00,69.0,61.0,-100.00,SE,145,6.0,11.0,74,0.00,,,-99.99,,2013-07-06 12:22:00,
2013-07-06 07:33:00,70.0,61.0,-100.00,SSE,160,6.0,10.0,72,0.00,,,-99.99,,2013-07-06 12:33:00,
2013-07-06 07:43:00,71.0,60.0,-100.00,SSE,165,8.0,12.0,69,0.00,,,-99.99,,2013-07-06 12:43:00,
2013-07-06 07:52:00,71.0,60.0,-100.00,SSE,165,8.0,12.0,69,0.00,,,-99.99,,2013-07-06 12:52:00,
2013-07-06 08:12:00,72.0,60.0,-100.00,SSE,160,9.0,12.0,66,0.00,,,-99.99,,2013-07-06 13:12:00,
2013-07-06 08:22:00,72.0,61.0,-100.00,South,180,9.0,12.0,66,0.00,,,-99.99,,2013-07-06 13:22:00,
2013-07-06 08:33:00,73.0,61.0,-100.00,South,180,7.0,10.0,66,0.00,,,-99.99,,2013-07-06 13:33:00,
2013-07-06 08:43:00,73.0,61.0,-100.00,South,180,9.0,12.0,65,0.00,,,-99.99,,2013-07-06 13:43:00,
2013-07-06 08:52:00,74.0,62.0,-100.00,South,170,7.0,12.0,64,0.00,,,-99.99,,2013-07-06 13:52:00,
2013-07-06 09:11:00,75.0,62.0,-100.00,South,170,7.0,12.0,63,0.00,,,-99.99,,2013-07-06 14:11:00,
2013-07-06 09:22:00,78.0,62.0,-100.00,SSE,165,6.0,9.0,59,0.00,,,-99.99,,2013-07-06 14:22:00,
2013-07-06 09:34:00,78.0,62.0,-100.00,SSE,155,9.0,12.0,56,0.00,,,-99.99,,2013-07-06 14:34:00,
2013-07-06 09:42:00,79.0,61.0,-100.00,SSE,165,9.0,11.0,55,0.00,,,-99.99,,2013-07-06 14:42:00,
2013-07-06 10:02:00,81.0,62.0,-100.00,South,170,7.0,12.0,52,0.00,,,-99.99,,2013-07-06 15:02:00,
2013-07-06 10:12:00,81.0,62.0,-100.00,South,170,7.0,12.0,52,0.00,,,-99.99,,2013-07-06 15:12:00,
2013-07-06 10:22:00,82.0,62.0,-100.00,SSE,165,8.0,14.0,50,0.00,,,-99.99,,2013-07-06 15:22:00,
2013-07-06 10:33:00,83.0,62.0,-100.00,South,185,9.0,13.0,49,0.00,,,-99.99,,2013-07-06 15:33:00,
2013-07-06 10:43:00,83.0,62.0,-100.00,South,180,10.0,15.0,48,0.00,,,-99.99,,2013-07-06 15:43:00,
2013-07-06 10:53:00,84.0,62.0,-100.00,South,175,9.0,14.0,48,0.00,,,-99.99,,2013-07-06 15:53:00,
2013-07-06 11:07:00,84.0,62.0,-100.00,South,175,11.0,16.0,46,0.00,,,-99.99,,2013-07-06 16:07:00,
2013-07-06 11:15:00,84.0,60.0,-100.00,South,180,14.0,17.0,44,0.00,,,-99.99,,2013-07-06 16:15:00,
2013-07-06 11:24:00,85.0,61.0,-100.00,South,170,12.0,18.0,44,0.00,,,-99.99,,2013-07-06 16:24:00,
2013-07-06 11:43:00,85.0,61.0,-100.00,South,190,13.0,18.0,44,0.00,,,-99.99,,2013-07-06 16:43:00,
2013-07-06 11:52:00,86.0,61.0,-100.00,South,175,13.0,18.0,43,0.00,,,-99.99,,2013-07-06 16:52:00,
2013-07-06 12:12:00,86.0,61.0,-100.00,South,175,12.0,17.0,42,0.00,,,-99.99,,2013-07-06 17:12:00,
2013-07-06 12:22:00,86.0,61.0,-100.00,South,175,12.0,17.0,42,0.00,,,-99.99,,2013-07-06 17:22:00,
2013-07-06 12:31:00,87.0,61.0,-100.00,SSE,160,12.0,18.0,42,0.00,,,-99.99,,2013-07-06 17:31:00,
2013-07-06 12:43:00,87.0,62.0,-100.00,SSE,165,11.0,17.0,42,0.00,,,-99.99,,2013-07-06 17:43:00,
2013-07-06 12:51:00,87.0,61.0,-100.00,South,185,13.0,18.0,42,0.00,,,-99.99,,2013-07-06 17:51:00,
2013-07-06 13:10:00,88.0,61.0,-100.00,South,185,12.0,18.0,40,0.00,,,-99.99,,2013-07-06 18:10:00,
2013-07-06 13:23:00,88.0,61.0,-100.00,SSE,150,14.0,20.0,41,0.00,,,-99.99,,2013-07-06 18:23:00,
2013-07-06 13:32:00,88.0,62.0,-100.00,SE,135,12.0,22.0,42,0.00,,,-99.99,,2013-07-06 18:32:00,
2013-07-06 13:44:00,89.0,63.0,-100.00,SE,145,9.0,16.0,42,0.00,,,-99.99,,2013-07-06 18:44:00,
2013-07-06 14:22:00,88.0,62.0,-100.00,South,170,12.0,21.0,41,0.00,,,-99.99,,2013-07-06 19:22:00,
2013-07-06 14:29:00,89.0,62.0,-100.00,SE,140,14.0,20.0,40,0.00,,,-99.99,,2013-07-06 19:29:00,
2013-07-06 14:57:00,89.0,62.0,-100.00,SSE,165,14.0,19.0,39,0.00,,,-99.99,,2013-07-06 19:57:00,
2013-07-06 15:12:00,89.0,62.0,-100.00,SSE,165,14.0,19.0,39,0.00,,,-99.99,,2013-07-06 20:12:00,
2013-07-06 15:22:00,90.0,61.0,-100.00,SE,145,16.0,22.0,38,0.00,,,-99.99,,2013-07-06 20:22:00,
2013-07-06 15:53:00,90.0,60.0,-100.00,SSE,150,12.0,22.0,37,0.00,,,-99.99,,2013-07-06 20:53:00,
2013-07-06 16:13:00,91.0,61.0,-100.00,SSE,155,12.0,22.0,37,0.00,,,-99.99,,2013-07-06 21:13:00,
2013-07-06 16:19:00,91.0,61.0,-100.00,SSE,155,12.0,22.0,37,0.00,,,-99.99,,2013-07-06 21:19:00,
2013-07-06 16:32:00,91.0,60.0,-100.00,SSE,165,12.0,26.0,36,0.00,,,-99.99,,2013-07-06 21:32:00,
2013-07-06 17:22:00,91.0,60.0,-100.00,SSE,150,15.0,21.0,35,0.00,,,-99.99,,2013-07-06 22:22:00,
2013-07-06 17:31:00,91.0,61.0,-100.00,SSE,155,11.0,21.0,36,0.00,,,-99.99,,2013-07-06 22:31:00,
2013-07-06 17:53:00,90.0,60.0,-100.00,SSE,160,14.0,22.0,36,0.00,,,-99.99,,2013-07-06 22:53:00,
2013-07-06 18:00:00,90.0,60.0,-100.00,SSE,150,12.0,23.0,36,0.00,,,-99.99,,2013-07-06 23:00:00,
2013-07-06 18:09:00,90.0,60.0,-100.00,SSE,160,14.0,22.0,36,0.00,,,-99.99,,2013-07-06 23:09:00,
2013-07-06 18:21:00,90.0,60.0,-100.00,SE,145,11.0,22.0,36,0.00,,,-99.99,,2013-07-06 23:21:00,
2013-07-06 18:31:00,90.0,60.0,-100.00,SE,145,11.0,22.0,36,0.00,,,-99.99,,2013-07-06 23:31:00,
2013-07-06 18:44:00,90.0,60.0,-100.00,SSE,165,12.0,22.0,36,0.00,,,-99.99,,2013-07-06 23:44:00,
2013-07-06 18:51:00,90.0,60.0,-100.00,SSE,165,12.0,22.0,36,0.00,,,-99.99,,2013-07-06 23:51:00,
2013-07-06 19:15:00,89.0,60.0,-100.00,SSE,150,11.0,17.0,38,0.00,,,-99.99,,2013-07-07 00:15:00,
2013-07-06 19:43:00,88.0,60.0,-100.00,SSE,155,12.0,20.0,38,0.00,,,-99.99,,2013-07-07 00:43:00,
2013-07-06 19:52:00,88.0,60.0,-100.00,SE,145,10.0,19.0,39,0.00,,,-99.99,,2013-07-07 00:52:00,
2013-07-06 20:11:00,87.0,61.0,-100.00,SE,145,11.0,19.0,41,0.00,,,-99.99,,2013-07-07 01:11:00,
2013-07-06 20:21:00,87.0,61.0,-100.00,SSE,150,9.0,17.0,42,0.00,,,-99.99,,2013-07-07 01:21:00,
2013-07-06 20:31:00,86.0,61.0,-100.00,SE,145,7.0,12.0,43,0.00,,,-99.99,,2013-07-07 01:31:00,
2013-07-06 20:42:00,86.0,61.0,-100.00,SSE,160,9.0,14.0,43,0.00,,,-99.99,,2013-07-07 01:42:00,
2013-07-06 20:59:00,85.0,61.0,-100.00,SSE,150,9.0,12.0,44,0.00,,,-99.99,,2013-07-07 01:59:00,
2013-07-06 21:11:00,84.0,61.0,-100.00,SSE,150,8.0,13.0,45,0.00,,,-99.99,,2013-07-07 02:11:00,
2013-07-06 21:19:00,84.0,61.0,-100.00,SE,145,9.0,12.0,45,0.00,,,-99.99,,2013-07-07 02:19:00,
2013-07-06 21:30:00,84.0,61.0,-100.00,SE,130,7.0,12.0,46,0.00,,,-99.99,,2013-07-07 02:30:00,
2013-07-06 21:48:00,82.0,61.0,-100.00,SE,140,7.0,12.0,48,0.00,,,-99.99,,2013-07-07 02:48:00,
2013-07-06 22:19:00,81.0,64.0,-100.00,SE,145,9.0,17.0,56,0.00,,,-99.99,,2013-07-07 03:19:00,
2013-07-06 22:48:00,81.0,64.0,-100.00,SE,145,9.0,13.0,56,0.00,,,-99.99,,2013-07-07 03:48:00,
2013-07-06 23:02:00,81.0,64.0,-100.00,SSE,160,7.0,12.0,57,0.00,,,-99.99,,2013-07-07 04:02:00,
2013-07-06 23:21:00,80.0,64.0,-100.00,SSE,155,9.0,15.0,58,0.00,,,-99.99,,2013-07-07 04:21:00,
2013-07-06 23:31:00,80.0,65.0,-100.00,SSE,160,10.0,16.0,59,0.00,,,-99.99,,2013-07-07 04:31:00,
2013-07-06 23:41:00,79.0,65.0,-100.00,SSE,160,9.0,14.0,61,0.00,,,-99.99,,2013-07-07 04:41:00,